[[{"header":{"parameterUnit":"m.s-1","parameterCategory":1,"la1":30.2991,"la2":30.254,"lo1":-89.0895,"lo2":-89.0444,"dy":0.0017,"dx":0.0017,"nx":28,"ny":28,"refTime":"2024-12-25T03:00:00:Z","depth":0,"parameterNumber":2,"parameterNumberName":"U-component_of_WINDS"},"data":[0,0,0,0,0,0,0,0,0,0,0,0,0,0,0,0,0,0,0,0,0,0,0,0,0,0,0,0,0,0,0,0,0,0,0,0,0,0,0,0,0,0,0,0,0,0,0,0,0,0,0,0,0,0,0,0,0,0,-5.6739,-5.6739,0,-5.6804,-5.6805,-5.6806,-5.6702,-5.6698,-5.6695,-5.6691,-5.676,-5.6765,-5.677,0,0,0,0,0,0,0,0,0,0,0,0,0,-5.6526,-5.6531,-5.6738,-5.6739,-5.674,-5.6804,-5.6805,-5.6806,-5.6702,-5.6698,-5.6694,-5.669,-5.6758,-5.6764,-5.677,0,0,0,0,0,0,0,0,0,0,0,0,0,-5.6608,-5.6532,-5.6738,-5.6696,-5.6693,-5.6804,-5.6805,-5.6806,-5.6703,-5.6698,-5.6692,-5.6687,-5.6756,-5.6764,-5.6771,-5.6927,0,0,-5.6795,-5.6798,0,0,0,0,0,0,0,0,-5.6604,-5.6616,-5.6702,-5.6699,-5.6696,-5.6739,-5.6755,-5.6847,-5.6705,-5.6699,-5.6691,-5.6685,-5.6757,-5.6765,-5.6789,-5.693,-5.6933,-5.6796,-5.68,-5.6804,-5.6806,0,0,0,0,0,0,0,-5.6598,-5.6613,-5.6764,-5.6703,-5.67,-5.6675,-5.6681,-5.6772,-5.6758,-5.6699,-5.6692,-5.6701,-5.6755,-5.6782,-5.679,-5.6934,-5.6795,-5.6802,-5.6807,-5.681,-5.7208,-5.7214,0,0,0,0,0,0,-5.6597,-5.6609,-5.6762,-5.6766,-5.6636,-5.6683,-5.6689,-5.6731,-5.6757,-5.6755,-5.6706,-5.6696,-5.6771,-5.6781,-5.6792,-5.6976,-5.6804,-5.6811,-5.6815,-5.7202,-5.721,-5.7216,0,0,0,0,0,0,-5.6593,-5.6612,-5.676,-5.6686,-5.6702,-5.6692,-5.674,-5.6735,-5.6761,-5.6761,-5.6758,-5.6736,-5.6767,-5.6781,-5.6894,-5.6977,-5.6814,-5.6822,-5.7195,-5.7205,-5.7213,-5.7346,0,0,0,0,0,0,-5.6587,-5.6611,-5.6669,-5.6688,-5.6707,-5.6861,-5.6745,-5.674,-5.6775,-5.6763,-5.6788,-5.6788,-5.6764,-5.6883,-5.6902,-5.6985,-5.6828,-5.7188,-5.72,-5.721,-5.7334,-5.7358,-5.7379,0,0,0,0,0,-5.658,-5.6704,-5.6673,-5.6692,-5.6779,-5.6865,-5.6876,-5.6846,-5.6782,-5.6841,-5.6841,-5.6787,-5.6966,-5.6896,-5.6916,-5.7002,-5.7183,-5.7196,-5.7209,-5.7324,-5.7354,-5.7379,0,0,0,0,0,0,-5.6695,-5.6705,-5.6671,-5.6804,-5.6835,-5.6848,-5.6921,-5.6879,-5.6928,-5.6915,-5.6877,-5.6883,-5.7005,-5.7015,-5.6938,-5.7155,-5.7063,-5.7081,-5.7144,-5.7172,-5.7194,-5.7188,-5.6834,0,0,0,0,0,-5.6736,-5.6805,-5.681,-5.6927,-5.6945,-5.6931,-5.6967,-5.6942,-5.6972,-5.6985,-5.6993,-5.7025,-5.7089,-5.7131,-5.7189,-5.7336,-5.7341,-5.7406,-5.7428,-5.7447,-5.7462,-5.7542,-5.7571,-5.726,-5.726,-5.7259,0,0,-5.6821,-5.6835,-5.6881,-5.6951,-5.6971,-5.7044,-5.6942,-5.7023,-5.7077,-5.6997,-5.7104,-5.7113,-5.7146,-5.7277,-5.7335,-5.7289,-5.755,-5.7464,-5.7478,-5.7484,-5.7559,-5.7588,-5.7614,-5.7269,-5.7267,-5.7266,0,0,-5.7012,-5.703,-5.713,-5.7153,-5.7186,-5.7177,-5.7201,-5.7222,-5.7224,-5.7331,-5.7273,-5.7338,-5.7448,-5.7474,-5.7502,-5.7708,-5.766,-5.7729,-5.7845,-5.7924,-5.7948,-5.797,-5.8043,-5.807,-5.7745,-5.7745,-5.7745,0,-5.7113,-5.722,-5.7187,-5.7272,-5.7306,-5.7237,-5.7339,-5.7364,-5.7415,-5.744,-5.7388,-5.7525,-5.7543,-5.768,-5.7731,-5.7756,-5.7783,-5.7724,-5.7947,-5.7968,-5.7988,-5.8058,-5.8086,-5.7753,-5.7752,-5.7751,-5.775,0,-5.7343,-5.7419,-5.7495,-5.7546,-5.7589,-5.7682,-5.7664,-5.7711,-5.7683,-5.768,-5.7792,-5.7811,-5.7873,-5.7904,-5.7877,-5.8038,-5.8009,-5.7953,-5.7859,-5.8026,-5.8091,-5.8118,-5.7764,-5.7762,-5.7759,-5.7757,0,0,-5.7605,-5.7639,-5.7668,-5.7691,-5.7724,-5.7782,-5.7874,-5.7934,-5.7976,-5.8015,-5.8091,-5.8187,-5.8136,-5.8168,-5.8144,-5.8213,-5.8376,-5.8149,-5.8149,-5.819,-5.8556,-5.8597,-5.8628,-5.8345,-5.835,-5.8354,-5.8553,0,-5.7796,-5.7953,-5.7927,-5.8079,-5.8149,-5.8087,-5.8167,-5.8197,-5.8198,-5.8258,-5.8258,-5.8327,-5.8255,-5.8274,-5.834,-5.8342,-5.8449,-5.8328,-5.8416,-5.842,-5.8408,-5.8662,-5.8705,-5.8891,-5.8578,-5.8582,-5.8585,0,-5.8038,-5.8086,-5.8246,-5.827,-5.8298,-5.837,-5.8425,-5.8483,-5.8517,-5.8512,-5.855,-5.8515,-5.8608,-5.8515,-5.8643,-5.8561,-5.8596,-5.8604,-5.861,-5.8616,-5.8512,-5.8674,-5.895,-5.8977,-5.8625,-5.8622,-5.8619,0,-5.8213,-5.8318,-5.8427,-5.8449,-5.848,-5.8532,-5.8548,-5.8576,-5.8615,-5.8664,-5.8689,-5.8748,-5.878,-5.8828,-5.881,-5.8743,-5.8942,-5.8847,-5.8941,-5.8942,-5.8984,-5.8981,-5.9268,-5.9009,-5.9009,-5.9008,-5.9008,0,-5.8428,-5.8527,-5.8506,-5.8573,-5.8684,-5.8655,-5.8766,-5.8774,-5.8801,-5.887,-5.8821,-5.8887,-5.8859,-5.8924,-5.8911,-5.902,-5.9035,-5.9035,-5.903,-5.9038,-5.9038,-5.9059,-5.9046,-5.9016,-5.9014,-5.9013,-5.9011,0,-5.864,-5.863,-5.8745,-5.8766,-5.8774,-5.8855,-5.8873,-5.8937,-5.8935,-5.9023,-5.9042,-5.9038,-5.9112,-5.91,-5.9181,-5.9173,-5.9309,-5.9288,-5.9297,-5.9292,-5.9387,-5.9378,-5.9696,-5.9737,-5.9453,-5.9455,-5.9458,0,-5.8777,-5.8852,-5.8882,-5.8925,-5.8944,-5.9013,-5.9053,-5.9029,-5.9073,-5.9119,-5.9177,-5.9247,-5.9301,-5.9422,-5.9428,-5.949,-5.9471,-5.9578,-5.948,-5.9487,-5.9472,-5.9467,-5.9475,-5.9597,-5.96,-5.9603,-5.9605,0,-5.902,-5.9012,-5.9071,-5.913,-5.9179,-5.9224,-5.9264,-5.9302,-5.9282,-5.9334,-5.9409,-5.9451,-5.9535,-5.9605,-5.9665,-5.9682,-5.9641,-5.9637,-5.9662,-5.967,-5.9672,-5.9672,-5.9349,-5.9629,-5.9626,-5.9625,-5.9623,-5.9623,-5.9198,-5.9263,-5.9295,-5.9363,-5.9391,-5.9431,-5.9492,-5.9498,-5.956,-5.9627,-5.961,-5.9695,-5.973,-5.9805,-5.983,-5.9897,-5.9857,-5.9893,-5.9902,-5.9911,-5.9923,-5.9663,-5.9908,-5.9907,-5.9906,-5.9906,-5.9905,0,-5.9438,-5.9457,-5.952,-5.9578,-5.9633,-5.9591,-5.9634,-5.9682,-5.9758,-5.9793,-5.9848,-5.9936,-6.0005,-6.0017,-6.0083,-6.0134,-6.0118,-6.0152,-6.0147,-6.0152,-5.9954,-5.9926,-6.0165,-6.0165,-6.0165,-6.0165,-6.0165,-6.0165,-5.957,-5.9677,-5.9674,-5.9796,-5.9814,-5.9897,-5.9925,-5.9962,-5.9991,-6.0091,-6.0148,-6.0156,-6.0183,-6.0251,-6.0312,-6.0314,-6.0341,-6.0383,-6.0378,-6.0192,-6.0166,-6.0141,-6.0114,-6.0389,-6.0389,-6.057,-6.0571,-6.0573]},{"header":{"parameterUnit":"m.s-1","parameterCategory":1,"la1":30.2991,"la2":30.254,"lo1":-89.0895,"lo2":-89.0444,"dy":0.0017,"dx":0.0017,"nx":28,"ny":28,"refTime":"2024-12-25T03:00:00:Z","depth":0,"parameterNumber":3,"parameterNumberName":"V-component_of_WINDS"},"data":[0,0,0,0,0,0,0,0,0,0,0,0,0,0,0,0,0,0,0,0,0,0,0,0,0,0,0,0,0,0,0,0,0,0,0,0,0,0,0,0,0,0,0,0,0,0,0,0,0,0,0,0,0,0,0,0,0,0,-0.2874,-0.2874,0,-0.2886,-0.2886,-0.2887,-0.2916,-0.2916,-0.2917,-0.2917,-0.2929,-0.2928,-0.2928,0,0,0,0,0,0,0,0,0,0,0,0,0,-0.2871,-0.287,-0.2874,-0.2874,-0.2874,-0.2886,-0.2886,-0.2887,-0.2915,-0.2916,-0.2917,-0.2918,-0.2929,-0.2928,-0.2928,0,0,0,0,0,0,0,0,0,0,0,0,0,-0.2876,-0.287,-0.2874,-0.289,-0.2891,-0.2886,-0.2886,-0.2887,-0.2915,-0.2916,-0.2917,-0.2918,-0.2929,-0.2928,-0.2928,-0.2907,0,0,-0.2927,-0.2927,0,0,0,0,0,0,0,0,-0.2876,-0.2876,-0.2887,-0.2889,-0.289,-0.29,-0.2889,-0.2893,-0.2915,-0.2906,-0.2917,-0.2918,-0.2918,-0.2919,-0.2919,-0.2908,-0.2908,-0.2927,-0.2926,-0.2926,-0.2926,0,0,0,0,0,0,0,-0.2876,-0.2876,-0.2879,-0.2887,-0.2889,-0.2895,-0.2897,-0.289,-0.2907,-0.2907,-0.2909,-0.291,-0.2919,-0.2919,-0.292,-0.2909,-0.2927,-0.2926,-0.2926,-0.2926,-0.2877,-0.2876,0,0,0,0,0,0,-0.2873,-0.2875,-0.2878,-0.2879,-0.2885,-0.2895,-0.2897,-0.2896,-0.2907,-0.291,-0.291,-0.2912,-0.292,-0.292,-0.292,-0.2894,-0.2926,-0.2926,-0.2926,-0.2878,-0.2877,-0.2876,0,0,0,0,0,0,-0.2873,-0.2873,-0.2878,-0.2878,-0.2879,-0.2894,-0.2893,-0.2896,-0.2896,-0.2909,-0.2912,-0.2907,-0.292,-0.2921,-0.291,-0.2895,-0.2926,-0.2925,-0.2879,-0.2878,-0.2876,-0.2844,0,0,0,0,0,0,-0.2873,-0.2873,-0.2866,-0.2877,-0.2879,-0.2868,-0.2892,-0.2896,-0.2896,-0.2898,-0.2907,-0.291,-0.2921,-0.291,-0.2909,-0.2895,-0.2925,-0.2881,-0.2879,-0.2877,-0.2846,-0.2841,-0.2837,0,0,0,0,0,-0.2873,-0.2857,-0.2866,-0.2866,-0.2871,-0.2867,-0.2868,-0.2882,-0.2894,-0.2887,-0.2895,-0.2909,-0.2897,-0.2909,-0.2908,-0.2894,-0.2882,-0.2879,-0.2877,-0.2848,-0.2842,-0.2837,0,0,0,0,0,0,-0.2844,-0.2859,-0.2869,-0.2857,-0.286,-0.2872,-0.2864,-0.2876,-0.2876,-0.2878,-0.2895,-0.2897,-0.2883,-0.2887,-0.29,-0.2872,-0.2892,-0.2889,-0.287,-0.2864,-0.286,-0.2859,-0.2925,0,0,0,0,0,-0.2837,-0.2833,-0.2846,-0.2834,-0.2835,-0.2849,-0.2848,-0.2858,-0.2862,-0.2864,-0.2871,-0.2874,-0.287,-0.2868,-0.2866,-0.2847,-0.2848,-0.2837,-0.2832,-0.2828,-0.2825,-0.2813,-0.2807,-0.2868,-0.2868,-0.2868,0,0,-0.2821,-0.2828,-0.2825,-0.2828,-0.2833,-0.2827,-0.285,-0.2844,-0.284,-0.2863,-0.2852,-0.2857,-0.2861,-0.2846,-0.2839,-0.2849,-0.2809,-0.2825,-0.2822,-0.2821,-0.281,-0.2804,-0.2799,-0.2866,-0.2867,-0.2867,0,0,-0.2789,-0.2795,-0.2785,-0.2788,-0.2793,-0.2802,-0.2799,-0.2808,-0.2812,-0.2802,-0.2818,-0.2813,-0.2807,-0.2808,-0.2808,-0.2773,-0.2786,-0.2772,-0.2748,-0.2735,-0.2731,-0.2726,-0.2711,-0.2706,-0.2769,-0.2769,-0.2769,0,-0.2768,-0.2762,-0.2777,-0.2769,-0.2769,-0.279,-0.2777,-0.2779,-0.2784,-0.2782,-0.2793,-0.2784,-0.2789,-0.2772,-0.2763,-0.2764,-0.2759,-0.2771,-0.273,-0.2726,-0.2722,-0.2708,-0.2703,-0.2767,-0.2768,-0.2768,-0.2768,0,-0.2735,-0.273,-0.272,-0.2723,-0.2722,-0.2712,-0.2724,-0.2721,-0.273,-0.2737,-0.2724,-0.273,-0.2728,-0.2725,-0.2735,-0.2708,-0.2714,-0.2727,-0.2747,-0.2714,-0.2701,-0.2696,-0.2765,-0.2765,-0.2766,-0.2766,0,0,-0.2687,-0.2697,-0.2693,-0.2693,-0.2699,-0.2695,-0.2684,-0.2682,-0.2677,-0.2679,-0.2669,-0.2663,-0.2674,-0.2674,-0.2684,-0.2673,-0.2641,-0.2687,-0.2687,-0.2676,-0.2609,-0.2598,-0.2592,-0.265,-0.2649,-0.2648,-0.2608,0,-0.2655,-0.2639,-0.2651,-0.2632,-0.2625,-0.2643,-0.2634,-0.2636,-0.2641,-0.2635,-0.2641,-0.2635,-0.2652,-0.2651,-0.2642,-0.2647,-0.2627,-0.265,-0.2639,-0.2638,-0.2636,-0.2585,-0.2574,-0.2536,-0.2603,-0.2603,-0.2602,0,-0.2617,-0.2615,-0.2595,-0.26,-0.2597,-0.2589,-0.2586,-0.2581,-0.2582,-0.2587,-0.2585,-0.2596,-0.2584,-0.2604,-0.2586,-0.2601,-0.2597,-0.2599,-0.2597,-0.2596,-0.2617,-0.258,-0.2525,-0.2518,-0.2595,-0.2595,-0.2596,0,-0.258,-0.2574,-0.256,-0.256,-0.2566,-0.2559,-0.2561,-0.2563,-0.2559,-0.2557,-0.2554,-0.255,-0.2547,-0.2543,-0.2552,-0.2566,-0.2532,-0.2553,-0.2533,-0.2533,-0.2525,-0.2525,-0.2466,-0.2525,-0.2525,-0.2525,-0.2525,0,-0.2543,-0.2529,-0.2544,-0.2535,-0.2519,-0.2533,-0.2516,-0.252,-0.2521,-0.2512,-0.2527,-0.2518,-0.2532,-0.2523,-0.2531,-0.2513,-0.2512,-0.2514,-0.2516,-0.2512,-0.2511,-0.2508,-0.251,-0.2524,-0.2524,-0.2524,-0.2524,0,-0.25,-0.2509,-0.2495,-0.2501,-0.2502,-0.249,-0.2494,-0.2485,-0.2491,-0.2479,-0.2477,-0.2485,-0.2476,-0.2485,-0.2476,-0.2481,-0.2457,-0.2463,-0.2456,-0.2457,-0.2436,-0.2437,-0.2372,-0.2363,-0.2429,-0.2429,-0.2428,0,-0.2475,-0.2464,-0.2468,-0.2463,-0.2464,-0.2456,-0.2452,-0.2464,-0.2459,-0.2458,-0.2449,-0.2441,-0.2435,-0.2419,-0.2423,-0.2416,-0.2421,-0.2398,-0.242,-0.2415,-0.2418,-0.2417,-0.2415,-0.2394,-0.2393,-0.2392,-0.2392,0,-0.2428,-0.2432,-0.2427,-0.2422,-0.2416,-0.2413,-0.2411,-0.2406,-0.2417,-0.2411,-0.2401,-0.2396,-0.2386,-0.2377,-0.2371,-0.2371,-0.2382,-0.2385,-0.238,-0.2375,-0.237,-0.2369,-0.2442,-0.2386,-0.2387,-0.2387,-0.2388,-0.2388,-0.2392,-0.2382,-0.2383,-0.2375,-0.2374,-0.2371,-0.2362,-0.2365,-0.2358,-0.2351,-0.2358,-0.2345,-0.2344,-0.2336,-0.2335,-0.2324,-0.2333,-0.2326,-0.2324,-0.2321,-0.2317,-0.2373,-0.2323,-0.2323,-0.2323,-0.2324,-0.2324,0,-0.2344,-0.2344,-0.2337,-0.2332,-0.2325,-0.2337,-0.2334,-0.2327,-0.2316,-0.2314,-0.2307,-0.2294,-0.2284,-0.2287,-0.2278,-0.2269,-0.2273,-0.2266,-0.2266,-0.2265,-0.2311,-0.2315,-0.2262,-0.2262,-0.2262,-0.2262,-0.2262,-0.2262,-0.2318,-0.2301,-0.2305,-0.2287,-0.2288,-0.2275,-0.2272,-0.2268,-0.2266,-0.2251,-0.2243,-0.2245,-0.2244,-0.2234,-0.2225,-0.2226,-0.2221,-0.2211,-0.2213,-0.2256,-0.2262,-0.2268,-0.2272,-0.221,-0.221,-0.2168,-0.2168,-0.2167]}]]